Theta_e
337 338 338 337 336 335 335 334 334 333 332 332 330 330 329 329 328 327 327 326 326 325 325 323 321 320 320 319 318 317 315 315 316 316 316 316 315 312 311 312 313 315 315 313 313 315 317 318 312 308 307 304 305 307 307 304 303 303 304 304 304 304 304
337 337 337 336 336 335 334 333 333 332 331 331 330 330 329 328 327 326 325 323 323 323 322 321 320 320 320 319 317 316 314 313 311 311 312 313 312 311 310 310 310 312 311 311 312 311 315 321 319 313 309 307 307 309 309 306 303 304 304 304 305 304 303
337 337 336 336 335 334 333 332 331 331 330 329 328 327 326 325 324 323 321 320 320 320 320 319 319 319 320 320 319 316 314 313 312 312 313 313 313 312 312 311 311 312 310 310 311 310 311 314 316 314 310 309 310 311 310 306 303 304 305 305 305 303 302
337 336 336 334 334 332 331 330 330 328 327 326 325 324 323 321 319 318 318 319 319 318 317 317 316 316 317 318 318 316 315 314 314 314 313 313 313 312 312 311 311 311 310 310 309 310 309 310 314 314 309 309 311 312 310 305 304 304 304 303 303 302 301
336 336 335 333 332 331 330 329 327 326 325 324 322 322 321 319 317 318 318 318 318 316 314 313 313 313 314 315 316 315 314 314 313 313 312 312 312 311 311 310 310 309 309 309 308 308 308 308 311 310 307 308 311 312 310 306 305 303 302 302 301 301 301
336 335 334 333 332 331 330 328 326 325 324 323 321 320 319 318 317 318 317 316 315 313 311 310 310 311 312 312 312 312 312 312 311 311 310 310 310 310 310 309 309 308 307 307 307 307 307 306 307 307 306 307 309 310 309 307 305 303 302 302 302 302 301
336 334 334 333 332 331 329 328 326 325 324 322 320 319 318 318 317 316 315 313 312 310 310 310 310 310 310 310 311 311 310 310 309 309 308 308 308 308 308 308 307 307 306 306 306 306 305 305 305 305 306 309 308 306 306 305 303 303 302 302 303 302 301
335 334 333 333 332 331 329 327 326 325 323 321 320 319 319 318 317 315 313 311 310 310 310 310 310 310 310 310 310 309 309 309 308 308 308 307 307 307 306 306 306 306 306 305 305 304 304 304 304 304 306 312 314 309 306 305 303 302 302 302 302 302 302
334 333 333 332 331 331 329 328 326 324 323 321 320 320 319 317 316 315 313 310 310 310 309 309 309 309 308 308 308 308 308 308 307 307 307 307 306 306 306 305 305 305 305 305 304 304 304 304 304 303 304 308 313 314 312 311 306 302 302 303 302 302 302
334 333 333 332 331 330 329 328 326 324 323 322 321 319 318 317 316 315 312 310 310 309 309 309 308 307 306 306 306 306 306 306 305 306 306 306 305 304 304 303 304 304 303 303 303 303 303 304 303 303 303 303 307 311 313 314 311 304 303 304 303 303 303
334 333 332 332 331 330 329 328 326 324 323 322 321 318 317 316 315 314 312 310 309 309 309 308 307 306 305 305 305 305 305 304 304 305 305 305 305 305 304 303 301 302 302 302 303 303 303 303 303 303 303 302 303 305 306 309 311 306 303 304 304 303 303
334 333 332 331 330 330 329 327 325 324 323 322 319 317 317 316 314 312 311 309 309 310 309 308 306 305 303 304 305 305 305 304 303 304 305 305 305 305 304 302 301 301 301 301 302 303 302 302 303 303 303 302 301 302 302 304 307 305 302 304 304 303 303
333 333 332 331 330 330 329 327 325 323 322 321 318 317 317 315 313 312 310 309 310 310 308 307 306 304 303 304 304 304 304 304 304 305 305 305 304 304 302 302 303 303 302 302 302 303 303 302 302 302 303 303 302 302 302 302 304 303 302 303 303 303 303
333 333 332 331 331 330 329 327 325 323 322 320 318 318 316 314 313 311 309 310 310 309 308 307 305 304 303 304 304 304 304 304 304 305 305 305 305 305 305 305 305 304 303 303 303 303 303 303 303 302 302 302 302 302 302 302 303 303 303 302 302 302 302
333 333 332 331 331 329 328 326 324 322 321 320 319 317 315 313 312 310 309 309 309 308 308 307 306 304 303 303 304 305 305 304 304 305 305 305 305 306 306 305 305 305 304 304 303 303 303 302 302 302 302 302 302 302 302 302 303 303 303 302 302 301 302
333 333 332 331 330 328 327 325 324 322 321 319 318 316 314 313 311 310 309 309 308 308 308 308 306 304 303 304 305 306 305 304 305 305 305 305 305 304 304 304 304 304 304 303 303 303 303 303 302 301 302 302 302 302 301 302 303 303 303 302 301 301 302
333 332 331 330 329 327 326 324 323 321 320 319 317 315 314 312 311 310 309 309 308 308 308 308 306 304 304 305 305 306 306 305 305 305 305 305 305 304 304 304 304 304 304 303 303 302 303 303 302 301 301 302 301 301 301 301 302 302 302 302 301 301 301
332 332 330 328 328 327 326 324 322 321 320 318 316 315 314 312 311 310 309 309 309 308 308 307 306 306 306 306 306 306 307 306 305 305 305 305 305 305 305 304 304 304 304 304 303 303 303 303 302 301 301 301 301 300 301 301 301 301 301 301 300 300 301
332 331 329 328 327 326 326 325 322 321 320 318 316 315 314 313 311 310 309 309 308 308 308 307 308 308 307 306 306 306 306 306 305 305 305 305 305 305 305 305 304 304 304 304 304 303 303 302 302 301 300 300 300 300 300 301 300 300 300 299 300 300 301
331 330 329 328 326 326 326 325 322 320 319 317 316 315 313 313 311 310 309 308 308 309 308 308 309 308 306 306 306 306 306 305 305 305 305 305 306 305 305 305 305 305 304 304 303 302 302 302 302 300 299 299 299 300 300 300 299 299 299 298 299 300 301
330 329 328 327 326 325 324 323 321 319 318 316 315 315 313 312 311 310 309 308 308 309 308 308 308 307 306 306 306 306 306 305 305 305 305 305 306 305 305 305 304 304 304 303 303 301 300 301 301 300 298 297 298 299 299 299 298 298 298 297 298 300 300
330 329 327 326 325 324 323 321 319 318 317 316 315 314 313 312 311 310 309 309 308 308 308 308 308 306 306 306 306 305 305 306 305 305 305 305 305 305 305 304 304 303 303 302 301 298 298 300 301 299 297 295 296 297 297 297 297 296 296 296 298 299 299
329 328 327 325 324 323 321 320 318 317 316 315 315 314 313 312 311 310 309 309 308 308 308 308 307 306 306 306 305 305 305 306 305 305 305 305 305 305 304 304 303 302 301 300 297 295 296 298 298 296 294 294 295 295 294 294 295 294 294 295 296 297 298
328 326 325 324 323 322 320 319 318 317 316 315 315 314 313 312 311 310 310 309 309 308 308 308 307 307 306 306 305 305 305 305 305 305 305 305 305 304 303 303 302 299 297 295 294 293 294 295 295 295 296 297 297 297 297 296 296 295 295 295 296 297 297
327 326 325 324 323 321 320 319 318 317 316 315 315 314 313 313 312 311 310 309 309 308 307 307 307 307 307 306 306 305 305 305 305 305 305 305 305 304 303 303 299 295 293 293 293 294 294 295 297 298 299 300 301 301 301 300 300 298 297 297 297 297 297
326 325 324 324 322 321 320 318 317 317 316 315 315 314 313 312 312 311 310 309 309 308 307 307 307 307 307 307 306 305 305 305 305 305 305 305 305 304 304 301 295 291 293 294 294 295 297 298 300 301 301 302 302 302 302 302 302 301 299 298 298 298 297
325 324 324 323 322 320 319 318 317 316 316 315 315 314 313 312 312 311 310 309 308 307 307 307 307 307 307 307 306 306 305 305 305 304 304 305 305 304 304 301 297 295 297 297 295 297 300 301 301 301 301 302 303 303 303 303 303 302 300 299 299 299 298
325 324 323 322 321 320 319 318 317 316 316 315 315 314 313 312 312 311 310 310 308 307 307 307 307 307 307 307 307 306 306 306 305 305 305 305 305 304 304 303 302 301 301 300 298 298 300 301 301 301 302 303 303 303 303 303 303 303 301 300 300 299 299
325 323 322 321 320 320 319 318 317 317 316 315 314 313 312 312 312 311 311 310 309 307 307 307 307 307 307 307 307 307 307 306 305 306 305 305 305 305 304 304 304 303 302 302 301 300 300 300 300 300 301 303 304 303 303 304 304 302 301 300 299 299 300
324 322 322 321 320 319 319 318 317 316 315 315 314 313 312 312 311 311 311 310 309 308 307 307 307 306 306 306 307 307 307 307 306 306 306 306 306 305 305 304 304 303 303 303 303 303 302 300 297 297 299 302 303 303 303 303 302 301 300 299 298 298 300
323 322 321 321 320 319 319 318 317 316 315 315 313 312 312 312 311 311 311 311 310 309 308 307 307 306 305 305 306 307 308 307 306 306 307 307 306 306 305 304 304 304 304 304 304 304 303 300 296 294 299 302 303 303 303 302 301 301 300 298 298 300 301
323 322 321 321 320 319 319 318 317 316 315 314 313 312 312 312 311 311 311 311 310 310 308 307 307 307 305 305 306 307 307 307 306 306 307 307 306 305 305 305 304 304 304 304 304 304 303 302 297 295 300 303 303 303 303 302 302 302 300 298 299 301 301
322 322 321 320 319 319 319 318 316 315 314 314 313 312 312 312 312 311 311 311 310 310 309 307 307 307 306 305 305 306 307 307 306 306 307 306 305 304 305 305 305 304 304 304 304 303 303 303 299 295 299 302 302 302 303 302 302 300 298 298 300 301 300
322 321 321 320 319 319 318 317 316 315 314 313 313 312 312 312 311 311 311 311 310 310 309 308 308 307 306 305 305 305 306 306 305 305 305 306 306 305 305 305 304 304 304 303 303 303 303 303 301 296 296 298 300 301 301 301 298 297 298 300 300 300 300
322 321 320 320 319 319 318 317 315 314 314 313 313 312 311 311 310 310 310 310 310 309 308 308 308 307 305 305 304 304 305 305 305 304 305 306 307 306 305 305 304 304 304 304 303 303 302 303 302 298 295 295 296 297 298 297 296 296 298 300 300 300 300
321 321 320 320 319 318 317 316 315 314 314 313 312 311 310 310 309 309 309 309 309 308 308 308 308 307 305 304 303 303 304 305 305 305 306 306 307 306 305 305 305 305 305 304 304 303 302 302 302 298 295 294 295 295 296 296 295 296 297 298 299 300 300
321 321 320 320 319 318 316 315 314 313 313 312 311 309 309 309 308 308 308 308 308 308 307 307 307 306 305 304 302 301 302 304 304 304 305 306 305 305 305 304 305 305 305 305 304 302 301 301 300 297 294 294 295 295 295 295 295 295 296 298 299 300 300
Wind_Speed
26 25 26 26 24 23 23 22 21 20 18 16 15 14 14 14 13 11 10 12 14 15 15 16 16 15 15 14 13 12 12 12 12 13 14 12 10 9 9 8 8 8 9 8 5 6 4 2 5 6 7 6 5 3 1 1 1 4 6 5 5 6 7
25 26 27 26 24 25 24 22 21 20 17 16 15 14 13 13 12 11 10 12 14 15 15 16 16 15 15 15 15 14 14 14 13 14 14 12 11 12 11 11 11 11 9 8 6 5 4 3 3 4 7 9 8 7 3 1 1 2 5 5 5 6 7
26 27 27 25 25 26 24 22 21 19 17 15 13 12 12 12 11 11 13 14 15 15 15 15 15 15 15 15 15 15 16 17 17 16 15 13 13 13 12 12 11 10 8 6 7 7 7 5 3 1 6 10 8 7 5 1 3 3 6 6 5 6 7
29 29 28 27 27 26 24 22 20 18 17 15 13 12 11 12 13 15 16 16 15 14 14 14 14 14 15 15 15 15 16 16 16 16 15 14 13 13 12 12 12 11 10 8 8 9 8 6 4 2 0 4 7 7 6 4 3 5 5 4 6 7 9
31 31 30 29 28 27 26 23 22 20 18 17 16 15 14 15 16 16 16 16 15 14 13 14 14 14 15 15 16 16 16 15 15 15 14 13 13 14 14 13 13 13 12 11 9 10 10 8 6 3 4 3 3 5 6 6 3 7 10 10 9 9 12
31 31 31 30 29 28 27 25 24 23 21 20 18 17 16 17 18 17 16 16 15 14 14 14 15 15 16 16 17 17 16 15 15 15 15 14 13 13 14 13 13 12 12 10 8 9 10 9 9 6 4 5 3 2 5 5 4 7 10 11 10 11 13
31 31 31 30 29 27 27 26 25 24 22 21 20 18 18 19 18 17 16 16 16 16 16 16 17 17 17 18 18 17 17 16 16 15 15 15 14 13 12 12 12 12 12 10 9 10 9 9 10 8 4 3 4 4 4 5 6 8 7 8 10 12 11
31 31 30 29 28 27 26 25 25 23 21 20 21 20 20 19 18 18 17 17 18 18 18 17 18 18 17 18 18 18 18 17 16 16 15 15 14 13 12 13 13 12 11 10 10 11 11 11 11 9 6 4 4 5 6 6 8 11 9 7 8 10 11
30 30 29 27 26 26 26 26 25 23 21 21 22 21 20 20 19 19 18 19 19 19 19 18 18 18 17 18 18 18 17 17 16 16 16 15 14 13 12 12 12 12 11 10 11 12 12 11 11 9 8 7 5 2 3 3 4 8 11 10 9 9 13
30 29 28 27 27 27 27 27 25 23 22 22 22 21 20 20 20 19 19 20 20 20 19 18 18 18 17 17 17 17 17 16 16 16 15 15 14 12 12 11 11 12 11 10 12 12 11 11 10 10 9 9 8 4 2 3 3 5 10 11 10 12 15
30 29 29 28 29 28 26 26 25 24 24 23 21 22 22 21 20 19 20 21 21 20 20 19 18 17 17 18 17 17 17 16 16 16 15 15 14 13 13 12 12 12 11 10 11 11 10 10 9 9 9 9 9 7 5 2 1 4 9 10 11 14 16
30 29 29 29 29 28 26 27 27 25 25 22 22 24 23 21 20 20 20 22 21 20 19 18 18 18 18 19 18 17 16 16 17 17 16 14 13 12 12 12 12 12 11 10 10 9 9 9 8 7 7 8 8 8 6 4 0 3 7 10 12 13 15
30 30 30 30 29 28 29 30 28 26 24 23 24 25 23 22 21 21 22 23 22 20 19 19 18 19 19 19 18 17 16 16 16 17 15 14 13 12 13 13 12 11 10 9 9 9 7 7 7 7 7 7 7 6 5 5 2 5 7 9 12 13 14
30 30 30 30 29 30 31 30 29 27 25 25 25 24 23 23 22 22 23 23 22 21 20 20 19 20 20 19 18 17 16 15 16 16 14 14 13 12 12 12 10 9 8 7 7 6 5 4 5 6 6 5 5 5 4 4 4 7 9 10 12 13 14
30 30 31 31 30 31 30 29 28 27 27 26 25 24 24 24 23 23 24 24 23 22 21 21 20 20 20 20 19 17 16 16 16 16 15 14 12 11 11 11 11 10 8 6 6 6 5 6 5 5 5 4 3 3 4 5 5 7 10 13 14 14 15
31 32 32 31 31 31 29 27 28 28 27 26 24 25 25 25 24 24 25 25 24 23 22 21 21 20 20 20 20 18 16 16 17 16 15 14 13 11 11 11 10 10 8 6 6 6 6 7 4 4 4 4 3 3 3 4 6 8 11 13 15 16 16
32 33 33 32 32 31 29 27 27 27 26 25 25 25 25 25 25 25 25 25 24 24 23 21 20 20 20 20 20 19 17 16 16 16 15 15 14 12 11 10 10 10 8 6 5 6 7 6 5 3 2 3 4 4 3 2 6 9 10 13 15 15 15
33 34 33 32 31 32 31 28 27 26 25 25 26 26 25 25 25 25 25 25 24 23 22 21 20 20 19 19 19 18 17 16 16 16 14 14 13 12 11 10 10 10 8 7 6 6 7 5 4 1 2 1 2 3 2 3 7 9 10 12 14 14 15
34 34 33 32 30 31 30 28 28 27 26 26 27 27 26 25 24 24 24 24 23 23 21 21 20 20 19 19 18 18 17 16 16 15 14 13 12 11 11 10 10 9 9 8 7 6 7 6 3 2 0 2 2 1 1 3 6 8 10 11 12 14 16
35 34 32 32 31 30 29 29 29 29 28 28 28 28 26 26 25 25 24 24 24 23 22 21 20 20 20 20 19 18 18 17 16 15 14 14 13 11 11 12 11 11 10 9 8 7 7 7 3 1 1 2 2 1 1 3 5 7 9 10 11 14 16
34 33 32 31 31 29 29 30 31 31 30 30 29 28 27 26 26 25 24 24 24 23 23 22 21 21 21 21 20 19 19 18 18 17 16 14 13 13 13 13 12 11 10 9 8 8 8 7 5 2 2 3 3 2 2 3 4 7 9 9 10 13 15
34 33 31 31 31 31 31 32 32 31 31 30 29 27 27 26 26 25 24 24 24 24 23 23 23 23 23 22 21 20 20 20 20 19 17 15 14 14 13 13 12 11 10 9 7 6 8 8 5 2 2 2 2 2 3 3 5 7 8 10 11 12 15
34 34 33 32 31 32 32 32 32 32 31 30 29 27 26 26 26 26 25 25 25 25 24 24 23 23 24 23 22 22 22 20 19 19 18 17 16 14 13 12 11 10 9 8 6 5 7 7 5 2 3 4 4 4 5 6 6 7 9 10 11 12 15
34 34 33 32 32 33 33 32 32 31 31 29 28 27 27 26 26 25 25 26 27 26 25 25 23 23 23 22 22 23 22 20 19 19 19 18 16 14 13 11 8 8 9 8 7 6 7 7 6 5 4 4 5 5 6 7 7 8 9 10 11 12 13
33 33 33 33 33 33 32 31 31 31 30 29 28 27 26 26 26 25 25 26 27 26 25 24 23 22 22 22 22 22 21 20 20 19 18 17 16 15 12 9 7 8 9 9 9 8 8 7 5 3 2 3 4 5 6 6 7 7 8 9 11 12 13
32 32 33 34 34 33 31 31 32 31 30 29 28 27 26 26 26 25 25 26 26 26 24 22 22 23 23 23 22 21 21 21 20 19 18 17 16 14 11 8 8 10 10 8 8 8 6 4 1 1 2 4 5 6 7 8 8 8 8 8 10 13 14
32 33 34 34 34 33 31 31 31 30 30 29 29 27 26 26 26 24 24 26 26 25 24 22 23 24 23 22 20 20 20 20 18 18 17 17 16 14 10 8 9 9 7 5 6 7 6 4 4 5 5 6 7 8 9 10 11 11 9 9 11 14 14
32 32 33 33 33 32 31 31 31 30 30 30 30 28 26 26 27 24 23 25 26 26 25 23 24 25 23 20 19 19 18 18 17 17 17 16 15 13 11 9 8 7 4 3 6 9 8 8 7 7 6 6 7 8 9 11 11 10 9 9 12 14 15
32 31 32 32 32 32 31 31 31 30 30 30 30 28 26 26 27 25 24 26 28 27 26 25 26 26 23 22 22 21 18 17 17 16 15 15 14 14 13 11 8 6 4 5 8 10 10 10 11 10 9 8 6 7 9 10 8 7 7 10 13 15 16
32 31 32 31 32 32 31 31 31 30 30 30 29 28 26 26 26 27 26 28 29 29 28 28 28 28 27 26 25 23 20 20 19 17 15 15 14 14 13 11 9 8 8 10 11 12 12 12 12 12 11 9 7 6 7 6 4 4 7 11 13 15 16
33 31 31 31 31 31 31 31 31 30 30 30 29 29 28 27 27 28 27 28 30 30 30 30 29 29 27 27 27 26 22 22 24 21 19 19 18 15 14 14 14 13 11 11 13 13 14 13 12 12 12 10 7 6 6 5 5 7 10 11 11 12 13
33 32 32 31 31 31 30 30 30 30 30 30 29 28 28 28 27 27 28 28 28 28 31 32 30 28 27 26 28 28 24 24 25 22 20 22 21 18 17 18 18 17 14 12 13 15 16 15 13 12 13 11 9 7 7 7 8 11 12 12 10 11 13
32 32 32 31 30 31 30 29 29 29 29 29 29 29 29 29 28 27 28 28 26 27 30 32 30 28 26 26 29 30 27 26 26 22 19 20 20 20 21 21 19 19 18 16 15 16 17 15 14 13 14 13 11 10 10 10 10 10 11 11 11 12 15
32 32 32 32 30 30 30 30 30 30 29 30 30 29 27 27 27 27 27 26 25 26 29 30 28 27 26 26 29 32 29 26 25 23 20 19 21 22 24 23 21 20 20 18 18 18 18 16 14 13 14 15 13 13 13 12 10 8 9 11 12 14 16
32 31 31 31 30 30 29 30 30 31 30 30 29 27 26 26 26 26 25 23 23 24 26 25 23 24 25 26 29 32 31 27 25 23 20 21 23 24 23 22 22 22 20 18 19 20 19 18 16 14 14 14 14 14 14 13 10 8 9 12 14 15 16
31 29 29 30 31 31 30 30 30 31 31 30 29 27 26 26 27 25 23 21 21 23 24 22 20 22 25 26 27 31 32 29 26 21 18 20 22 22 21 21 23 23 21 19 19 21 22 21 19 16 14 14 13 13 12 11 10 10 11 14 15 16 15
31 31 30 31 32 31 30 30 29 29 30 30 29 28 27 27 27 26 24 22 22 23 23 21 20 22 25 25 25 29 32 33 29 22 17 18 19 18 18 19 20 22 22 20 19 19 21 22 20 16 15 14 12 11 10 11 11 10 12 15 15 16 14
Wind_Direction
164 165 169 167 165 164 163 165 167 171 175 177 175 175 180 183 184 191 195 186 177 172 173 171 164 159 161 164 166 166 164 163 170 169 161 166 170 152 139 139 122 126 144 138 151 173 152 179 206 205 208 204 208 209 106 78 134 43 16 355 5 14 17
165 164 166 166 166 166 167 169 172 174 178 182 184 184 186 190 195 201 196 180 174 177 177 174 170 166 164 163 162 160 155 149 147 151 148 149 156 148 138 139 130 124 128 110 107 132 107 112 182 211 206 209 236 242 233 33 94 29 351 338 354 15 28
163 163 165 166 167 168 167 170 174 177 179 182 186 188 188 190 189 182 172 167 172 177 175 174 174 172 171 167 163 159 152 145 142 142 138 131 132 134 135 139 132 121 121 95 77 83 78 85 108 173 205 200 222 238 220 165 76 24 329 324 2 43 42
166 164 164 164 165 166 166 168 172 174 175 177 178 176 176 173 166 162 163 165 171 172 171 172 173 172 172 169 165 161 154 148 145 143 137 130 125 121 121 124 119 109 102 89 72 76 79 74 80 60 353 201 225 228 193 163 81 33 7 36 70 60 31
170 168 167 165 165 167 168 168 170 169 170 171 170 171 171 167 163 162 165 166 165 165 165 165 165 165 164 164 163 160 156 151 149 148 141 134 129 121 115 113 113 108 98 94 88 83 82 77 87 89 42 41 279 243 184 170 106 56 56 73 72 37 19
174 173 171 170 170 173 174 172 173 173 172 171 172 173 169 166 167 169 169 166 162 159 155 154 154 156 156 157 157 156 153 149 149 149 141 133 131 125 121 119 118 113 101 99 100 91 85 80 75 57 36 55 18 278 189 172 117 78 68 65 46 24 20
176 175 174 174 175 178 179 178 178 177 176 174 174 170 165 164 167 169 168 163 157 152 147 147 149 151 154 153 153 151 147 145 145 142 137 133 130 127 128 126 121 115 106 102 101 92 83 78 69 48 28 59 47 55 111 120 83 65 58 52 30 15 16
178 178 179 179 181 183 182 179 179 179 177 174 170 167 164 164 165 165 163 157 153 150 148 150 152 153 155 152 149 148 144 144 143 137 134 133 129 128 129 127 122 117 111 106 101 93 84 77 70 59 59 74 59 49 67 89 77 54 35 23 13 10 10
181 181 182 183 185 186 184 181 180 179 178 174 169 167 166 166 166 165 162 157 155 154 152 156 157 156 156 152 149 146 142 144 142 136 134 132 129 128 128 128 125 118 117 116 106 96 90 82 72 67 68 76 85 58 21 32 59 51 32 13 2 2 2
183 182 181 181 182 184 184 183 180 179 180 177 173 171 169 169 169 166 162 159 157 157 157 160 160 158 157 153 150 146 143 144 141 135 134 131 126 125 124 124 123 118 119 123 114 101 93 85 78 71 64 68 83 101 73 6 341 29 30 12 357 349 350
182 180 179 179 179 179 181 182 181 181 181 178 175 173 170 169 169 168 164 160 160 161 161 163 162 160 158 152 148 146 143 144 140 134 133 130 127 126 122 119 117 115 116 119 116 107 98 92 84 73 61 62 72 80 79 59 321 13 15 1 351 344 342
180 178 178 179 179 179 180 181 180 180 179 177 174 171 170 170 169 169 166 162 162 164 165 165 163 161 159 153 149 145 142 145 141 135 134 134 133 133 127 119 114 110 110 112 110 104 97 92 87 80 67 58 62 64 56 56 57 339 356 349 342 339 340
179 178 179 180 181 180 180 181 180 179 176 174 173 171 171 172 170 170 168 165 166 166 165 166 165 163 161 157 153 148 147 149 145 139 139 137 133 131 126 119 112 106 106 107 104 99 90 80 79 81 78 65 59 49 36 44 3 308 334 346 338 338 344
179 178 179 180 180 179 179 181 180 179 176 174 174 174 174 174 173 171 168 168 168 168 167 167 167 166 163 158 155 153 153 153 147 142 141 137 134 133 132 129 124 121 122 115 112 111 95 89 98 89 75 62 53 38 19 25 352 314 325 342 340 342 348
179 178 178 178 177 176 178 179 178 177 175 175 177 177 176 176 175 173 171 171 171 170 170 169 169 169 165 159 157 155 155 154 149 145 142 141 141 142 145 144 142 143 145 137 133 137 114 97 109 108 74 42 34 37 17 6 346 312 314 330 339 343 348
177 176 176 175 174 173 175 175 176 176 174 175 178 178 178 177 177 176 175 174 174 172 172 173 172 171 167 163 159 155 156 156 152 148 146 145 146 148 149 151 152 151 151 144 142 155 136 96 95 129 95 57 52 44 16 355 338 315 309 322 334 340 346
175 174 173 172 172 172 172 171 173 175 174 175 177 178 180 180 179 179 178 177 176 174 174 173 172 170 168 165 160 156 158 160 157 154 153 153 154 156 154 152 153 150 145 141 141 162 154 107 84 137 136 74 50 22 5 355 340 327 319 324 331 340 348
173 173 172 171 172 173 172 172 174 177 178 177 178 179 181 181 180 180 179 178 176 176 176 172 169 168 168 165 160 160 164 164 160 159 160 161 161 162 158 152 152 151 149 150 150 161 161 127 82 86 188 178 15 3 7 5 347 338 335 336 339 344 349
172 173 172 172 172 173 175 178 180 183 184 180 179 180 180 180 181 180 179 180 178 177 176 172 170 171 168 164 162 166 168 165 163 164 163 163 164 165 161 156 157 159 163 170 175 178 171 150 109 33 250 228 291 346 24 357 346 343 344 344 345 348 348
172 173 173 173 172 173 179 184 184 184 184 180 178 180 179 180 181 181 181 180 180 179 176 174 174 174 169 167 168 170 168 164 165 166 164 163 165 167 167 167 170 173 177 186 195 193 178 164 156 147 269 261 270 299 7 352 343 344 345 345 348 349 346
173 173 172 172 172 175 180 183 183 182 181 179 179 179 179 180 181 182 182 182 181 181 178 176 178 175 171 171 173 172 168 167 168 167 165 166 169 174 177 179 182 184 187 194 205 203 187 178 180 199 283 284 271 282 335 349 343 343 347 347 348 348 344
173 173 171 169 171 177 181 180 181 181 179 179 180 180 180 181 181 181 183 183 183 182 181 180 181 178 174 174 175 172 170 172 172 169 166 168 174 180 186 189 192 195 199 206 214 208 193 191 201 229 323 322 300 327 354 6 354 347 350 350 347 345 340
171 172 171 170 173 178 181 181 181 180 179 179 179 179 181 182 182 182 183 183 183 183 183 183 183 181 178 177 175 173 173 174 173 171 170 171 176 185 191 195 200 205 209 212 204 186 183 188 189 155 93 73 57 41 34 28 15 0 356 354 351 347 337
171 172 171 172 177 181 181 181 180 179 179 180 179 179 181 183 183 184 185 185 185 185 184 184 183 182 180 179 178 176 176 175 174 176 176 175 180 187 191 197 206 203 196 191 181 165 161 160 146 126 103 70 47 38 31 25 16 4 357 352 346 343 332
170 171 172 174 179 182 181 181 180 179 179 179 178 179 183 185 185 186 189 188 186 185 184 184 183 182 181 182 182 180 179 177 178 179 179 180 186 188 190 196 197 185 175 174 171 160 150 145 133 112 76 25 2 356 354 351 349 347 345 342 336 333 326
170 171 174 177 180 181 182 181 180 179 179 179 178 180 184 185 185 189 191 189 185 184 183 183 183 182 184 185 183 183 182 180 181 181 180 184 190 190 193 196 184 174 171 174 175 170 164 160 164 279 313 321 320 319 315 313 312 313 317 323 323 324 325
171 173 175 178 180 181 181 181 180 180 180 179 179 181 185 186 186 190 191 187 183 182 181 183 185 184 184 183 182 183 183 182 183 184 184 189 194 197 200 197 183 177 181 199 213 212 214 235 256 263 272 285 296 300 299 298 293 288 296 312 311 315 325
173 175 176 178 180 182 181 180 180 180 180 180 181 183 186 186 186 189 190 186 183 181 182 185 186 184 180 179 181 183 182 183 186 187 188 192 198 205 205 195 185 183 192 246 253 241 239 247 252 252 259 274 290 297 297 301 297 283 286 305 306 310 321
173 175 177 178 180 182 182 181 180 181 181 181 182 184 186 187 188 189 189 187 184 183 184 185 185 183 181 182 183 180 179 184 187 190 194 196 203 211 207 194 190 197 210 233 242 244 244 246 248 248 250 259 279 299 303 305 299 275 280 305 311 313 318
174 175 176 179 182 183 183 181 180 181 181 181 182 184 186 187 188 190 189 188 188 185 183 184 187 188 189 189 185 180 179 182 184 189 195 194 196 200 199 197 203 208 216 226 235 244 249 252 254 250 244 246 260 289 300 291 263 254 292 309 310 309 312
175 176 178 182 184 185 183 182 181 182 182 182 183 185 187 188 189 191 190 189 191 188 184 184 189 191 191 193 191 186 182 181 182 186 190 186 183 186 195 210 214 210 215 223 227 236 248 257 259 245 234 236 249 268 282 275 265 279 299 305 304 307 314
176 179 182 185 187 186 184 182 182 183 184 184 184 185 189 190 189 190 191 192 193 192 187 186 191 194 193 195 198 195 189 184 183 186 187 187 190 195 205 218 221 216 218 220 221 233 247 255 255 240 229 234 247 257 269 283 292 299 306 309 310 318 325
180 183 185 186 187 186 185 182 181 182 182 184 186 187 190 191 189 187 190 194 195 195 192 188 192 198 198 199 203 202 196 191 189 189 189 192 197 201 207 217 222 219 219 220 224 236 246 250 251 242 234 240 250 257 264 281 297 303 309 314 313 318 324
186 188 187 186 186 186 185 182 180 180 182 184 186 187 188 188 186 184 188 192 192 195 196 193 195 202 203 202 206 206 201 197 196 196 196 197 198 201 207 217 221 220 220 223 229 238 241 244 249 248 243 247 253 258 266 280 295 298 301 306 308 316 324
189 188 186 185 183 183 185 184 182 181 182 183 183 183 182 182 181 181 185 190 192 194 196 197 203 209 206 204 208 209 205 200 198 200 204 204 201 201 208 217 221 221 224 228 232 237 238 240 247 253 252 251 253 258 266 278 289 289 290 299 305 313 322
185 184 185 185 183 182 183 183 183 182 182 181 178 177 177 177 177 177 179 185 193 196 196 201 211 215 210 207 210 211 208 203 201 202 202 197 194 197 206 215 220 223 229 234 235 236 236 238 245 253 254 251 252 257 265 274 280 278 283 294 301 307 317
183 183 185 185 183 181 180 179 180 182 181 179 175 173 174 174 174 176 178 183 193 200 203 208 214 215 214 212 211 211 210 209 208 208 199 190 187 191 201 211 219 224 229 233 234 234 235 238 244 250 251 248 250 256 261 267 271 275 281 288 293 298 307